CES7866 UHMA-UHWW

Flight info

Callsign CES7866
Flight time 5h 23m
Altitude 35000
Route DANUB B216 LUMIR L771 BUMAT G212 OMARU N222 NA G212 FI W307 TD B355 BG G714 DAGES
Aircraft B738/L-SDE3FGHIRWY/LB1

Departure

Time 2026-04-27 05:48
Airport Ugolny Yuri Ryktheu Airport (UHMA)

Arrival

Time 2026-04-27 11:12
Airport Vladivostok International Airport (UHWW)
Time Latitude Longitude Altitude Speed Heading
2026-04-27 05:29 64.71403 177.73724 123 ft 0 kts 176°
2026-04-27 05:36 64.71414 177.73723 123 ft 2 kts 175°
2026-04-27 05:36 64.71428 177.73720 124 ft 0 kts 176°
2026-04-27 05:36 64.71439 177.73717 125 ft 2 kts 164°
2026-04-27 05:37 64.71452 177.73703 126 ft 2 kts 146°
2026-04-27 05:37 64.71464 177.73680 128 ft 2 kts 128°
2026-04-27 05:37 64.71471 177.73650 129 ft 2 kts 111°
2026-04-27 05:37 64.71474 177.73616 130 ft 2 kts 94°
2026-04-27 05:38 64.71474 177.73599 130 ft 1 kts 84°
2026-04-27 05:38 64.71474 177.73592 131 ft 0 kts 86°
2026-04-27 05:42 64.71475 177.73613 130 ft 2 kts 86°
2026-04-27 05:42 64.71478 177.73654 130 ft 2 kts 68°
2026-04-27 05:42 64.71490 177.73688 129 ft 2 kts 38°
2026-04-27 05:42 64.71502 177.73708 129 ft 2 kts 34°
2026-04-27 05:43 64.71521 177.73735 129 ft 3 kts 29°
2026-04-27 05:43 64.71545 177.73766 128 ft 4 kts 32°
2026-04-27 05:43 64.71568 177.73791 129 ft 2 kts 17°
2026-04-27 05:43 64.71581 177.73798 130 ft 1 kts
2026-04-27 05:44 64.71603 177.73791 131 ft 4 kts 342°
2026-04-27 05:44 64.71629 177.73755 133 ft 4 kts 322°
2026-04-27 05:44 64.71655 177.73704 136 ft 4 kts 321°
2026-04-27 05:44 64.71685 177.73648 138 ft 7 kts 320°
2026-04-27 05:45 64.71735 177.73550 139 ft 10 kts 325°
2026-04-27 05:45 64.71800 177.73469 140 ft 9 kts 335°
2026-04-27 05:45 64.71838 177.73427 141 ft 0 kts 335°
2026-04-27 05:46 64.71845 177.73421 141 ft 2 kts 335°
2026-04-27 05:46 64.71869 177.73393 141 ft 4 kts 335°
2026-04-27 05:47 64.71905 177.73355 142 ft 6 kts 341°
2026-04-27 05:47 64.71957 177.73346 143 ft 8 kts 356°
2026-04-27 05:47 64.72017 177.73280 143 ft 11 kts 346°
2026-04-27 05:47 64.72102 177.73312 144 ft 14 kts 13°
2026-04-27 05:48 64.72236 177.73393 144 ft 41 kts 15°
2026-04-27 05:48 64.72840 177.73759 144 ft 135 kts 14°
2026-04-27 05:48 64.73944 177.74434 447 ft 183 kts 15°
2026-04-27 05:48 64.75095 177.75165 1734 ft 173 kts 15°
2026-04-27 05:49 64.76327 177.75951 2293 ft 203 kts 14°
2026-04-27 05:49 64.77831 177.76721 2705 ft 232 kts
2026-04-27 05:49 64.79301 177.76189 3958 ft 220 kts 335°
2026-04-27 05:49 64.80505 177.73851 4526 ft 240 kts 301°
2026-04-27 05:50 64.80863 177.70041 5355 ft 248 kts 262°
2026-04-27 05:50 64.80156 177.66287 6009 ft 266 kts 227°
2026-04-27 05:50 64.78630 177.63886 6922 ft 271 kts 207°
2026-04-27 05:50 64.77074 177.61408 7741 ft 280 kts 228°
2026-04-27 05:51 64.76047 177.57596 8699 ft 283 kts 248°
2026-04-27 05:51 64.75435 177.53259 9621 ft 287 kts 256°
2026-04-27 05:51 64.74963 177.48709 10471 ft 293 kts 257°
2026-04-27 05:51 64.74504 177.43907 10814 ft 318 kts 258°
2026-04-27 05:52 64.74025 177.38728 11213 ft 338 kts 258°
2026-04-27 05:52 64.73528 177.33260 11505 ft 360 kts 258°
2026-04-27 05:52 64.73007 177.27473 11743 ft 382 kts 258°
2026-04-27 05:52 64.72449 177.21271 12165 ft 397 kts 258°
2026-04-27 05:53 64.71869 177.14896 12812 ft 404 kts 258°
2026-04-27 05:53 64.71278 177.08490 13514 ft 409 kts 258°
2026-04-27 05:53 64.70676 177.01991 14215 ft 414 kts 258°
2026-04-27 05:53 64.70067 176.95439 14864 ft 419 kts 258°
2026-04-27 05:54 64.69440 176.88704 15016 ft 425 kts 258°
2026-04-27 05:54 64.68819 176.82057 15000 ft 419 kts 258°
2026-04-27 05:54 64.68191 176.75392 15001 ft 418 kts 258°
2026-04-27 05:54 64.67564 176.68785 15001 ft 419 kts 258°
2026-04-27 05:55 64.66937 176.62218 15001 ft 419 kts 258°
2026-04-27 05:55 64.66299 176.55553 15001 ft 419 kts 258°
2026-04-27 05:55 64.65668 176.48987 15001 ft 419 kts 258°
2026-04-27 05:55 64.65028 176.42374 15001 ft 419 kts 258°
2026-04-27 05:56 64.64389 176.35794 15001 ft 419 kts 258°
2026-04-27 05:56 64.64024 176.32044 15001 ft 419 kts 257°
2026-04-27 05:56 64.63638 176.28095 15001 ft 419 kts 257°
2026-04-27 05:56 64.62987 176.21471 15001 ft 419 kts 257°
2026-04-27 05:57 64.62341 176.14929 15001 ft 419 kts 257°
2026-04-27 05:57 64.61691 176.08371 15001 ft 419 kts 257°
2026-04-27 05:57 64.61030 176.01743 15001 ft 419 kts 257°
2026-04-27 05:57 64.60426 175.95708 15002 ft 418 kts 257°
2026-04-27 05:58 64.59759 175.89125 15006 ft 419 kts 257°
2026-04-27 05:58 64.59139 175.82494 15564 ft 423 kts 258°
2026-04-27 05:58 64.58562 175.75709 16250 ft 427 kts 259°
2026-04-27 05:58 64.58004 175.68994 16877 ft 430 kts 259°
2026-04-27 05:59 64.57435 175.62125 17501 ft 434 kts 259°
2026-04-27 05:59 64.56868 175.55246 18094 ft 438 kts 259°
2026-04-27 05:59 64.56297 175.48294 18669 ft 441 kts 259°
2026-04-27 05:59 64.55719 175.41270 19229 ft 445 kts 259°
2026-04-27 06:00 64.54548 175.27084 20295 ft 452 kts 259°
2026-04-27 06:00 64.53956 175.19974 20795 ft 455 kts 259°
2026-04-27 06:00 64.53347 175.12706 21282 ft 458 kts 259°
2026-04-27 06:01 64.52735 175.05432 21752 ft 462 kts 259°
2026-04-27 06:01 64.52118 174.98152 22202 ft 465 kts 259°
2026-04-27 06:01 64.51498 174.90869 22635 ft 468 kts 259°
2026-04-27 06:01 64.50855 174.83382 23063 ft 470 kts 259°
2026-04-27 06:02 64.50209 174.75894 23476 ft 473 kts 259°
2026-04-27 06:02 64.49561 174.68433 23874 ft 476 kts 259°
2026-04-27 06:02 64.48907 174.60953 24259 ft 479 kts 259°
2026-04-27 06:02 64.48246 174.53429 24631 ft 481 kts 259°
2026-04-27 06:03 64.47572 174.45808 24998 ft 484 kts 259°
2026-04-27 06:03 64.46894 174.38194 25355 ft 486 kts 259°
2026-04-27 06:03 64.46209 174.30547 25740 ft 488 kts 258°
2026-04-27 06:03 64.45520 174.22910 26157 ft 488 kts 258°
2026-04-27 06:04 64.44824 174.15240 26591 ft 488 kts 258°
2026-04-27 06:04 64.44123 174.07579 27030 ft 488 kts 258°
2026-04-27 06:04 64.43422 173.99962 27468 ft 487 kts 258°
2026-04-27 06:04 64.42715 173.92352 27902 ft 487 kts 258°
2026-04-27 06:05 64.42004 173.84726 28335 ft 486 kts 258°
2026-04-27 06:05 64.41284 173.77068 28769 ft 485 kts 258°
2026-04-27 06:05 64.40574 173.69544 29189 ft 484 kts 258°
2026-04-27 06:05 64.39860 173.62028 29602 ft 483 kts 258°
2026-04-27 06:06 64.39133 173.54405 30017 ft 483 kts 258°
2026-04-27 06:06 64.38410 173.46875 30419 ft 482 kts 258°
2026-04-27 06:06 64.37685 173.39359 30815 ft 481 kts 258°
2026-04-27 06:06 64.36963 173.31917 31200 ft 480 kts 257°
2026-04-27 06:07 64.36233 173.24438 31582 ft 479 kts 257°
2026-04-27 06:07 64.35503 173.16995 31955 ft 478 kts 257°
2026-04-27 06:07 64.34767 173.09537 32324 ft 478 kts 257°
2026-04-27 06:07 64.34036 173.02162 32696 ft 477 kts 257°
2026-04-27 06:08 64.33290 172.94688 33072 ft 476 kts 257°
2026-04-27 06:08 64.32550 172.87311 33438 ft 475 kts 257°
2026-04-27 06:08 64.31807 172.79939 33795 ft 475 kts 257°
2026-04-27 06:08 64.31055 172.72527 34153 ft 474 kts 257°
2026-04-27 06:09 64.30303 172.65157 34499 ft 473 kts 257°
2026-04-27 06:09 64.29560 172.57909 34838 ft 472 kts 257°
2026-04-27 06:09 64.28805 172.50580 35006 ft 475 kts 257°
2026-04-27 06:09 64.28037 172.43164 35002 ft 471 kts 257°
2026-04-27 06:10 64.26535 172.28764 35001 ft 462 kts 256°
2026-04-27 06:10 64.25017 172.14380 35001 ft 466 kts 256°
2026-04-27 06:11 64.23484 171.99973 35001 ft 467 kts 256°
2026-04-27 06:11 64.21935 171.85573 35001 ft 466 kts 256°
2026-04-27 06:12 64.20375 171.71231 35001 ft 465 kts 256°
2026-04-27 06:12 64.18798 171.56891 35001 ft 466 kts 256°
2026-04-27 06:13 64.17206 171.42557 35001 ft 466 kts 256°
2026-04-27 06:13 64.15611 171.28349 35001 ft 466 kts 255°
2026-04-27 06:14 64.13982 171.13977 35001 ft 466 kts 255°
2026-04-27 06:14 64.12347 170.99689 35001 ft 466 kts 255°
2026-04-27 06:15 64.10706 170.85484 35001 ft 466 kts 255°
2026-04-27 06:15 64.09036 170.71181 35001 ft 466 kts 255°
2026-04-27 06:16 64.07371 170.57013 35001 ft 466 kts 255°
2026-04-27 06:16 64.05724 170.42781 35001 ft 466 kts 256°
2026-04-27 06:17 64.04061 170.28560 35001 ft 466 kts 255°
2026-04-27 06:17 64.02381 170.14339 35001 ft 466 kts 255°
2026-04-27 06:18 64.00690 170.00151 35001 ft 466 kts 255°
2026-04-27 06:18 63.98981 169.85957 35001 ft 466 kts 255°
2026-04-27 06:19 63.97267 169.71851 35001 ft 466 kts 255°
2026-04-27 06:19 63.95530 169.57683 35001 ft 466 kts 255°
2026-04-27 06:20 63.93782 169.43565 35001 ft 466 kts 255°
2026-04-27 06:20 63.92032 169.29550 35001 ft 466 kts 253°
2026-04-27 06:21 63.90258 169.15480 35001 ft 466 kts 253°
2026-04-27 06:21 63.88465 169.01376 35001 ft 466 kts 254°
2026-04-27 06:22 63.86664 168.87338 35001 ft 466 kts 254°
2026-04-27 06:22 63.84851 168.73337 35001 ft 466 kts 254°
2026-04-27 06:23 63.83011 168.59244 35001 ft 466 kts 254°
2026-04-27 06:23 63.81168 168.45258 35001 ft 466 kts 254°
2026-04-27 06:24 63.79322 168.31369 35001 ft 466 kts 253°
2026-04-27 06:24 63.77445 168.17357 35001 ft 466 kts 253°
2026-04-27 06:25 63.75561 168.03416 35001 ft 466 kts 253°
2026-04-27 06:25 63.73666 167.89511 35001 ft 466 kts 253°
2026-04-27 06:26 63.71758 167.75632 35001 ft 466 kts 253°
2026-04-27 06:26 63.69838 167.61777 35001 ft 466 kts 253°
2026-04-27 06:27 63.67898 167.47900 35001 ft 466 kts 252°
2026-04-27 06:27 63.65532 167.34431 35000 ft 466 kts 243°
2026-04-27 06:28 63.62611 167.21545 35001 ft 466 kts 243°
2026-04-27 06:28 63.59670 167.08603 35000 ft 466 kts 243°
2026-04-27 06:29 63.56705 166.95741 35000 ft 466 kts 242°
2026-04-27 06:29 63.53730 166.82964 35000 ft 466 kts 242°
2026-04-27 06:30 63.50731 166.70187 35000 ft 466 kts 242°
2026-04-27 06:30 63.47717 166.57440 35000 ft 466 kts 242°
2026-04-27 06:31 63.44682 166.44690 35000 ft 466 kts 242°
2026-04-27 06:31 63.41651 166.32034 35000 ft 466 kts 241°
2026-04-27 06:32 63.38598 166.19360 35000 ft 466 kts 241°
2026-04-27 06:32 63.35525 166.06686 35000 ft 466 kts 241°
2026-04-27 06:33 63.32452 165.94080 35000 ft 466 kts 241°
2026-04-27 06:33 63.29371 165.81517 35000 ft 466 kts 241°
2026-04-27 06:34 63.26260 165.68904 35001 ft 466 kts 241°
2026-04-27 06:34 63.23150 165.56367 35001 ft 466 kts 242°
2026-04-27 06:35 63.20040 165.43880 35000 ft 466 kts 242°
2026-04-27 06:35 63.16909 165.31377 35001 ft 466 kts 240°
2026-04-27 06:36 63.13786 165.18979 35001 ft 466 kts 240°
2026-04-27 06:36 63.10636 165.06541 35001 ft 466 kts 240°
2026-04-27 06:37 63.07472 164.94119 35001 ft 466 kts 240°
2026-04-27 06:37 63.04297 164.81718 35000 ft 466 kts 240°
2026-04-27 06:38 63.01121 164.69389 35000 ft 466 kts 240°
2026-04-27 06:38 62.97932 164.57075 35001 ft 466 kts 240°
2026-04-27 06:39 62.94738 164.44814 35001 ft 466 kts 240°
2026-04-27 06:39 62.91527 164.32553 35001 ft 466 kts 239°
2026-04-27 06:40 62.88310 164.20335 35001 ft 466 kts 240°
2026-04-27 06:40 62.85081 164.08142 35001 ft 466 kts 240°
2026-04-27 06:41 62.81836 163.95952 35001 ft 466 kts 240°
2026-04-27 06:41 62.78572 163.83758 35001 ft 466 kts 240°
2026-04-27 06:42 62.75318 163.71670 35001 ft 466 kts 240°
2026-04-27 06:42 62.72042 163.59564 35001 ft 466 kts 240°
2026-04-27 06:43 62.68742 163.47435 35001 ft 466 kts 240°
2026-04-27 06:43 62.65434 163.35342 35001 ft 466 kts 240°
2026-04-27 06:44 62.62143 163.23378 35001 ft 466 kts 239°
2026-04-27 06:44 62.58805 163.11307 35001 ft 466 kts 239°
2026-04-27 06:45 62.55500 162.99419 35001 ft 466 kts 239°
2026-04-27 06:45 62.52152 162.87442 35001 ft 466 kts 239°
2026-04-27 06:46 62.48794 162.75490 35001 ft 466 kts 239°
2026-04-27 06:46 62.45428 162.63573 35001 ft 466 kts 239°
2026-04-27 06:47 62.42065 162.51732 35001 ft 466 kts 239°
2026-04-27 06:47 62.38705 162.39963 35001 ft 466 kts 239°
2026-04-27 06:48 62.35318 162.28160 35000 ft 466 kts 238°
2026-04-27 06:48 62.31914 162.16359 35000 ft 466 kts 238°
2026-04-27 06:49 62.28512 162.04623 35000 ft 466 kts 238°
2026-04-27 06:49 62.25097 161.92909 35000 ft 466 kts 238°
2026-04-27 06:50 62.21667 161.81201 35000 ft 466 kts 238°
2026-04-27 06:50 62.18224 161.69511 35000 ft 466 kts 238°
2026-04-27 06:51 62.14773 161.57854 35000 ft 466 kts 238°
2026-04-27 06:51 62.11306 161.46202 35000 ft 466 kts 238°
2026-04-27 06:52 62.07842 161.34618 35000 ft 466 kts 237°
2026-04-27 06:52 62.04376 161.23086 35000 ft 466 kts 237°
2026-04-27 06:53 62.00867 161.11473 35000 ft 466 kts 237°
2026-04-27 06:53 61.97378 160.99985 35000 ft 466 kts 237°
2026-04-27 06:54 61.93874 160.88503 35000 ft 466 kts 237°
2026-04-27 06:54 61.90340 160.76981 35001 ft 466 kts 237°
2026-04-27 06:55 61.86829 160.65595 35001 ft 466 kts 237°
2026-04-27 06:55 61.83327 160.54137 35000 ft 466 kts 240°
2026-04-27 06:56 61.80339 160.42052 35002 ft 466 kts 244°
2026-04-27 06:56 61.77377 160.29907 35001 ft 466 kts 242°
2026-04-27 06:57 61.74396 160.17844 35001 ft 466 kts 242°
2026-04-27 06:57 61.71400 160.05788 35001 ft 466 kts 242°
2026-04-27 06:58 61.66898 159.87807 35001 ft 466 kts 242°
2026-04-27 06:59 61.63860 159.75754 35001 ft 466 kts 242°
2026-04-27 06:59 61.60836 159.63825 35001 ft 466 kts 242°
2026-04-27 07:00 61.57805 159.51933 35001 ft 466 kts 242°
2026-04-27 07:00 61.54737 159.39963 35001 ft 466 kts 242°
2026-04-27 07:01 61.51677 159.28088 35001 ft 466 kts 241°
2026-04-27 07:01 61.48592 159.16183 35001 ft 466 kts 241°
2026-04-27 07:02 61.45526 159.04411 35001 ft 466 kts 241°
2026-04-27 07:02 61.42414 158.92526 35001 ft 466 kts 241°
2026-04-27 07:03 61.39319 158.80766 35001 ft 466 kts 241°
2026-04-27 07:03 61.36210 158.69017 35001 ft 466 kts 241°
2026-04-27 07:04 61.33092 158.57294 35001 ft 466 kts 241°
2026-04-27 07:04 61.29950 158.45544 35001 ft 466 kts 241°
2026-04-27 07:05 61.26794 158.33803 35001 ft 466 kts 240°
2026-04-27 07:05 61.23648 158.22159 35001 ft 466 kts 240°
2026-04-27 07:06 61.20482 158.10498 35001 ft 466 kts 240°
2026-04-27 07:06 61.17318 157.98910 35001 ft 466 kts 240°
2026-04-27 07:07 61.14113 157.87233 35001 ft 466 kts 240°
2026-04-27 07:07 61.10931 157.75696 35001 ft 466 kts 240°
2026-04-27 07:08 61.07733 157.64159 35001 ft 466 kts 240°
2026-04-27 07:08 61.04504 157.52573 35001 ft 466 kts 240°
2026-04-27 07:09 61.01277 157.41051 35001 ft 466 kts 240°
2026-04-27 07:09 60.98051 157.29593 35001 ft 466 kts 239°
2026-04-27 07:10 60.94797 157.18092 35001 ft 466 kts 239°
2026-04-27 07:10 60.91553 157.06683 35001 ft 466 kts 239°
2026-04-27 07:11 60.88278 156.95227 35001 ft 466 kts 239°
2026-04-27 07:11 60.85017 156.83874 35001 ft 466 kts 239°
2026-04-27 07:12 60.81736 156.72511 35001 ft 466 kts 239°
2026-04-27 07:12 60.78439 156.61147 35001 ft 466 kts 239°
2026-04-27 07:13 60.75129 156.49797 35001 ft 466 kts 239°
2026-04-27 07:13 60.71822 156.38512 35001 ft 466 kts 239°
2026-04-27 07:14 60.68505 156.27248 35001 ft 466 kts 239°
2026-04-27 07:14 60.65185 156.16028 35001 ft 466 kts 239°
2026-04-27 07:15 60.61842 156.04785 35001 ft 466 kts 239°
2026-04-27 07:15 60.58490 155.93564 35001 ft 466 kts 239°
2026-04-27 07:16 60.55125 155.82356 35001 ft 466 kts 239°
2026-04-27 07:16 60.51758 155.71196 35001 ft 466 kts 239°
2026-04-27 07:17 60.48388 155.60078 35001 ft 466 kts 239°
2026-04-27 07:17 60.45000 155.48955 35001 ft 466 kts 239°
2026-04-27 07:18 60.41600 155.37846 35001 ft 466 kts 239°
2026-04-27 07:18 60.38181 155.26729 35001 ft 466 kts 238°
2026-04-27 07:19 60.34772 155.15698 35001 ft 466 kts 238°
2026-04-27 07:19 60.31356 155.04697 35001 ft 466 kts 238°
2026-04-27 07:20 60.27915 154.93666 35001 ft 466 kts 238°
2026-04-27 07:20 60.24458 154.82642 35001 ft 466 kts 238°
2026-04-27 07:21 60.21005 154.71678 35001 ft 466 kts 238°
2026-04-27 07:21 60.17365 154.60977 35001 ft 466 kts 233°
2026-04-27 07:22 60.13482 154.50647 35001 ft 466 kts 233°
2026-04-27 07:22 60.09612 154.40259 35001 ft 466 kts 233°
2026-04-27 07:23 60.05770 154.29965 35000 ft 466 kts 233°
2026-04-27 07:23 60.01895 154.19612 35001 ft 466 kts 233°
2026-04-27 07:24 59.98017 154.09286 35001 ft 466 kts 233°
2026-04-27 07:24 59.94150 153.99031 35001 ft 466 kts 233°
2026-04-27 07:25 59.90276 153.88798 35001 ft 466 kts 233°
2026-04-27 07:25 59.86371 153.78529 35001 ft 466 kts 233°
2026-04-27 07:26 59.82473 153.68321 35001 ft 466 kts 233°
2026-04-27 07:26 59.78571 153.58150 35001 ft 466 kts 233°
2026-04-27 07:27 59.74637 153.47935 35001 ft 466 kts 233°
2026-04-27 07:27 59.70728 153.37830 35001 ft 466 kts 233°
2026-04-27 07:28 59.66799 153.27716 35001 ft 466 kts 232°
2026-04-27 07:28 59.62862 153.17629 35000 ft 466 kts 232°
2026-04-27 07:29 59.58892 153.07497 35000 ft 466 kts 232°
2026-04-27 07:29 59.54952 152.97488 35000 ft 466 kts 232°
2026-04-27 07:30 59.50979 152.87436 35000 ft 466 kts 232°
2026-04-27 07:30 59.46998 152.77411 35000 ft 466 kts 232°
2026-04-27 07:31 59.43032 152.67464 35000 ft 466 kts 232°
2026-04-27 07:31 59.39043 152.57503 35000 ft 466 kts 232°
2026-04-27 07:32 59.35053 152.47580 35000 ft 466 kts 232°
2026-04-27 07:32 59.31041 152.37646 35000 ft 466 kts 232°
2026-04-27 07:33 59.27076 152.27872 35001 ft 466 kts 231°
2026-04-27 07:33 59.23061 152.18015 35001 ft 466 kts 231°
2026-04-27 07:34 59.19021 152.08139 35001 ft 466 kts 231°
2026-04-27 07:34 59.14991 151.98331 35001 ft 466 kts 231°
2026-04-27 07:35 59.10963 151.88564 35001 ft 466 kts 231°
2026-04-27 07:35 59.06916 151.78789 35001 ft 466 kts 231°
2026-04-27 07:36 59.02855 151.69002 35000 ft 466 kts 231°
2026-04-27 07:36 58.98797 151.59261 35000 ft 466 kts 231°
2026-04-27 07:37 58.94745 151.49579 35000 ft 466 kts 231°
2026-04-27 07:37 58.90652 151.39839 35001 ft 466 kts 231°
2026-04-27 07:38 58.86586 151.30203 35001 ft 466 kts 230°
2026-04-27 07:38 58.82500 151.20561 35001 ft 466 kts 230°
2026-04-27 07:39 58.78382 151.10879 35001 ft 466 kts 230°
2026-04-27 07:39 58.74346 151.01298 35001 ft 466 kts 231°
2026-04-27 07:40 58.70273 150.91599 35001 ft 466 kts 231°
2026-04-27 07:40 58.66230 150.82008 35001 ft 466 kts 231°
2026-04-27 07:41 58.62146 150.72362 35001 ft 466 kts 231°
2026-04-27 07:41 58.58051 150.62849 35001 ft 466 kts 230°
2026-04-27 07:42 58.53898 150.53384 35001 ft 466 kts 230°
2026-04-27 07:42 58.49745 150.43935 35001 ft 466 kts 230°
2026-04-27 07:43 58.45596 150.34532 35001 ft 466 kts 229°
2026-04-27 07:43 58.41444 150.25156 35001 ft 466 kts 229°
2026-04-27 07:44 58.37276 150.15781 35001 ft 466 kts 229°
2026-04-27 07:44 58.33084 150.06389 35001 ft 466 kts 229°
2026-04-27 07:45 58.28913 149.97081 35001 ft 466 kts 230°
2026-04-27 07:45 58.24707 149.87730 35001 ft 466 kts 230°
2026-04-27 07:46 58.20518 149.78458 35001 ft 466 kts 230°
2026-04-27 07:46 58.16313 149.69182 35001 ft 466 kts 230°
2026-04-27 07:47 58.12117 149.59966 35001 ft 466 kts 230°
2026-04-27 07:47 58.07906 149.50751 35001 ft 466 kts 229°
2026-04-27 07:48 58.03689 149.41562 35001 ft 466 kts 229°
2026-04-27 07:48 57.99446 149.32353 35001 ft 466 kts 229°
2026-04-27 07:49 57.95218 149.23206 35001 ft 466 kts 229°
2026-04-27 07:49 57.90967 149.14044 35001 ft 466 kts 229°
2026-04-27 07:50 57.86740 149.04968 35001 ft 466 kts 229°
2026-04-27 07:50 57.82492 148.95880 35001 ft 466 kts 229°
2026-04-27 07:51 57.78244 148.86829 35001 ft 466 kts 229°
2026-04-27 07:51 57.73973 148.77763 35001 ft 466 kts 229°
2026-04-27 07:52 57.69689 148.68706 35001 ft 466 kts 229°
2026-04-27 07:52 57.65391 148.59653 35001 ft 466 kts 229°
2026-04-27 07:53 57.61110 148.50670 35001 ft 466 kts 229°
2026-04-27 07:53 57.56820 148.41704 35001 ft 466 kts 229°
2026-04-27 07:54 57.52520 148.32753 35001 ft 466 kts 228°
2026-04-27 07:54 57.48195 148.23784 35001 ft 466 kts 228°
2026-04-27 07:55 57.43890 148.14890 35001 ft 466 kts 228°
2026-04-27 07:55 57.39553 148.05965 35001 ft 466 kts 228°
2026-04-27 07:56 57.35246 147.97134 35001 ft 466 kts 228°
2026-04-27 07:56 57.30899 147.88257 35001 ft 466 kts 228°
2026-04-27 07:57 57.26563 147.79436 35001 ft 466 kts 228°
2026-04-27 07:57 57.22234 147.70660 35001 ft 466 kts 228°
2026-04-27 07:58 57.17889 147.61888 35001 ft 466 kts 228°
2026-04-27 07:58 57.13511 147.53081 35001 ft 466 kts 228°
2026-04-27 07:59 57.09152 147.44347 35001 ft 466 kts 228°
2026-04-27 07:59 57.02611 147.31300 35001 ft 466 kts 227°
2026-04-27 08:00 56.98214 147.22572 35001 ft 466 kts 227°
2026-04-27 08:00 56.93858 147.13957 35001 ft 466 kts 227°
2026-04-27 08:01 56.89441 147.05254 35001 ft 466 kts 227°
2026-04-27 08:01 56.85050 146.96632 35001 ft 466 kts 227°
2026-04-27 08:02 56.80651 146.88029 35001 ft 466 kts 227°
2026-04-27 08:02 56.76240 146.79434 35001 ft 466 kts 227°
2026-04-27 08:03 56.71822 146.70856 35001 ft 466 kts 227°
2026-04-27 08:03 56.67408 146.62317 35001 ft 466 kts 227°
2026-04-27 08:04 56.62996 146.53815 35001 ft 466 kts 227°
2026-04-27 08:04 56.58550 146.45276 35001 ft 466 kts 227°
2026-04-27 08:05 56.54142 146.36842 35001 ft 466 kts 227°
2026-04-27 08:05 56.49673 146.28322 35001 ft 466 kts 226°
2026-04-27 08:06 56.45233 146.19890 35001 ft 466 kts 226°
2026-04-27 08:06 56.40783 146.11469 35001 ft 466 kts 226°
2026-04-27 08:07 56.36315 146.03043 35001 ft 466 kts 226°
2026-04-27 08:07 56.31858 145.94672 35001 ft 466 kts 226°
2026-04-27 08:08 56.27390 145.86307 35001 ft 466 kts 226°
2026-04-27 08:08 56.22922 145.77974 35001 ft 466 kts 226°
2026-04-27 08:09 56.18412 145.69594 35001 ft 466 kts 226°
2026-04-27 08:09 56.13944 145.61322 35001 ft 466 kts 226°
2026-04-27 08:10 56.09449 145.53029 35001 ft 466 kts 226°
2026-04-27 08:10 56.04944 145.44760 35001 ft 466 kts 226°
2026-04-27 08:11 56.00415 145.36494 35001 ft 466 kts 226°
2026-04-27 08:11 55.95902 145.28285 35001 ft 466 kts 225°
2026-04-27 08:12 55.91402 145.20126 35001 ft 466 kts 225°
2026-04-27 08:12 55.86878 145.11952 35001 ft 466 kts 225°
2026-04-27 08:13 55.82314 145.03734 35001 ft 466 kts 225°
2026-04-27 08:13 55.77795 144.95627 35001 ft 466 kts 225°
2026-04-27 08:14 55.73231 144.87466 35001 ft 466 kts 225°
2026-04-27 08:14 55.68684 144.79321 35001 ft 466 kts 225°
2026-04-27 08:15 55.64150 144.71214 35001 ft 466 kts 225°
2026-04-27 08:15 55.59581 144.63077 35001 ft 466 kts 225°
2026-04-27 08:16 55.55027 144.54993 35001 ft 466 kts 225°
2026-04-27 08:16 55.50461 144.46919 35001 ft 466 kts 225°
2026-04-27 08:17 55.45892 144.38866 35001 ft 466 kts 225°
2026-04-27 08:17 55.41321 144.30839 35001 ft 466 kts 225°
2026-04-27 08:18 55.36769 144.22876 35001 ft 466 kts 225°
2026-04-27 08:18 55.32189 144.14888 35001 ft 466 kts 225°
2026-04-27 08:19 55.27600 144.06914 35001 ft 466 kts 225°
2026-04-27 08:19 55.22989 143.98929 35001 ft 466 kts 225°
2026-04-27 08:20 55.18398 143.91005 35001 ft 466 kts 225°
2026-04-27 08:20 55.13812 143.83118 35001 ft 466 kts 225°
2026-04-27 08:21 55.09193 143.75201 35001 ft 466 kts 225°
2026-04-27 08:21 55.04597 143.67349 35001 ft 466 kts 225°
2026-04-27 08:22 54.99992 143.59511 35001 ft 466 kts 225°
2026-04-27 08:22 54.95361 143.51653 35001 ft 466 kts 225°
2026-04-27 08:23 54.90726 143.43816 35001 ft 466 kts 225°
2026-04-27 08:23 54.86117 143.36047 35001 ft 466 kts 225°
2026-04-27 08:24 54.81476 143.28253 35001 ft 466 kts 224°
2026-04-27 08:24 54.76826 143.20471 35001 ft 466 kts 224°
2026-04-27 08:25 54.72171 143.12705 35001 ft 466 kts 224°
2026-04-27 08:25 54.67549 143.05019 35001 ft 466 kts 224°
2026-04-27 08:26 54.62893 142.97304 35001 ft 466 kts 224°
2026-04-27 08:26 54.58215 142.89587 35001 ft 466 kts 224°
2026-04-27 08:27 54.53504 142.81967 35001 ft 466 kts 223°
2026-04-27 08:27 54.48817 142.74416 35001 ft 466 kts 223°
2026-04-27 08:28 54.44082 142.66809 35001 ft 466 kts 223°
2026-04-27 08:28 54.39363 142.59248 35001 ft 466 kts 223°
2026-04-27 08:29 54.34643 142.51712 35001 ft 466 kts 223°
2026-04-27 08:29 54.29927 142.44205 35001 ft 466 kts 223°
2026-04-27 08:30 54.25180 142.36671 35001 ft 466 kts 223°
2026-04-27 08:30 54.20456 142.29199 35001 ft 466 kts 223°
2026-04-27 08:31 54.15723 142.21739 35001 ft 466 kts 223°
2026-04-27 08:31 54.10968 142.14267 35001 ft 466 kts 223°
2026-04-27 08:32 54.06207 142.06812 35001 ft 466 kts 223°
2026-04-27 08:32 54.01458 141.99397 35001 ft 466 kts 223°
2026-04-27 08:33 53.96696 141.91988 35001 ft 466 kts 223°
2026-04-27 08:33 53.91936 141.84607 35001 ft 466 kts 223°
2026-04-27 08:34 53.87184 141.77260 35001 ft 466 kts 223°
2026-04-27 08:34 53.82399 141.69887 35001 ft 466 kts 223°
2026-04-27 08:35 53.77642 141.62579 35001 ft 466 kts 223°
2026-04-27 08:35 53.72844 141.55235 35001 ft 466 kts 223°
2026-04-27 08:36 53.68075 141.47957 35001 ft 466 kts 223°
2026-04-27 08:36 53.63276 141.40657 35001 ft 466 kts 223°
2026-04-27 08:37 53.58493 141.33403 35000 ft 466 kts 221°
2026-04-27 08:37 53.53701 141.26161 35001 ft 466 kts 221°
2026-04-27 08:38 53.48882 141.18901 35001 ft 466 kts 221°
2026-04-27 08:38 53.44060 141.11661 35000 ft 466 kts 221°
2026-04-27 08:39 53.39247 141.04456 35001 ft 466 kts 221°
2026-04-27 08:39 53.34428 140.97264 35000 ft 466 kts 221°
2026-04-27 08:40 53.29604 140.90088 35000 ft 466 kts 221°
2026-04-27 08:40 53.24766 140.82915 35000 ft 466 kts 221°
2026-04-27 08:41 53.19960 140.75812 35000 ft 466 kts 221°
2026-04-27 08:41 53.15124 140.68689 35000 ft 466 kts 221°
2026-04-27 08:42 53.09985 140.62097 35001 ft 466 kts 216°
2026-04-27 08:42 53.04806 140.55772 35000 ft 466 kts 217°
2026-04-27 08:43 52.99628 140.49391 35000 ft 466 kts 217°
2026-04-27 08:43 52.94418 140.42976 35000 ft 466 kts 217°
2026-04-27 08:44 52.89237 140.36607 35000 ft 466 kts 217°
2026-04-27 08:44 52.84045 140.30238 35000 ft 466 kts 216°
2026-04-27 08:45 52.78883 140.23923 35000 ft 466 kts 216°
2026-04-27 08:45 52.73668 140.17560 35001 ft 466 kts 216°
2026-04-27 08:46 52.68507 140.11281 35000 ft 466 kts 216°
2026-04-27 08:46 52.63274 140.04935 35001 ft 466 kts 216°
2026-04-27 08:47 52.57976 139.98880 35001 ft 466 kts 214°
2026-04-27 08:47 52.52646 139.92937 35000 ft 466 kts 214°
2026-04-27 08:48 52.47311 139.86974 35000 ft 466 kts 214°
2026-04-27 08:48 52.41969 139.81017 35001 ft 466 kts 214°
2026-04-27 08:49 52.36624 139.75070 35001 ft 466 kts 214°
2026-04-27 08:49 52.31306 139.69170 35001 ft 466 kts 214°
2026-04-27 08:50 52.25949 139.63243 35001 ft 466 kts 214°
2026-04-27 08:50 52.20604 139.57344 35001 ft 466 kts 214°
2026-04-27 08:51 52.15277 139.51483 35001 ft 466 kts 214°
2026-04-27 08:51 52.09937 139.45627 35001 ft 466 kts 214°
2026-04-27 08:52 52.04565 139.39751 35001 ft 466 kts 214°
2026-04-27 08:52 51.99199 139.33899 35001 ft 466 kts 213°
2026-04-27 08:53 51.93829 139.28059 35001 ft 466 kts 213°
2026-04-27 08:53 51.88479 139.22258 35001 ft 466 kts 213°
2026-04-27 08:54 51.83131 139.16478 35001 ft 466 kts 213°
2026-04-27 08:54 51.77746 139.10673 35001 ft 466 kts 213°
2026-04-27 08:55 51.72378 139.04904 35001 ft 466 kts 213°
2026-04-27 08:55 51.67002 138.99144 35001 ft 466 kts 213°
2026-04-27 08:56 51.61636 138.93411 35000 ft 466 kts 213°
2026-04-27 08:56 51.56270 138.87694 35001 ft 466 kts 213°
2026-04-27 08:57 51.48175 138.79102 35001 ft 466 kts 213°
2026-04-27 08:58 51.42800 138.73416 35001 ft 466 kts 213°
2026-04-27 08:58 51.37413 138.67735 35001 ft 466 kts 213°
2026-04-27 08:59 51.31994 138.62035 35001 ft 466 kts 213°
2026-04-27 08:59 51.26621 138.56401 35001 ft 466 kts 213°
2026-04-27 09:00 51.21220 138.50755 35001 ft 466 kts 213°
2026-04-27 09:00 51.15804 138.45108 35001 ft 466 kts 213°
2026-04-27 09:01 51.10403 138.39493 35001 ft 466 kts 213°
2026-04-27 09:01 51.04996 138.33887 35001 ft 466 kts 213°
2026-04-27 09:02 50.99574 138.28282 35001 ft 466 kts 213°
2026-04-27 09:02 50.94190 138.22733 35001 ft 466 kts 213°
2026-04-27 09:03 50.88891 138.16872 35001 ft 466 kts 218°
2026-04-27 09:03 50.83815 138.10492 35001 ft 466 kts 218°
2026-04-27 09:04 50.78742 138.04231 35001 ft 466 kts 218°
2026-04-27 09:04 50.73634 137.97952 35001 ft 466 kts 218°
2026-04-27 09:05 50.68521 137.91692 35001 ft 466 kts 218°
2026-04-27 09:05 50.63425 137.85471 35001 ft 466 kts 218°
2026-04-27 09:06 50.58339 137.79280 35001 ft 466 kts 218°
2026-04-27 09:06 50.53217 137.73065 35001 ft 466 kts 218°
2026-04-27 09:07 50.48098 137.66873 35001 ft 466 kts 218°
2026-04-27 09:07 50.42988 137.60709 35001 ft 466 kts 218°
2026-04-27 09:08 50.37862 137.54555 35001 ft 466 kts 217°
2026-04-27 09:08 50.32558 137.48776 35001 ft 466 kts 214°
2026-04-27 09:09 50.27227 137.43085 35001 ft 466 kts 215°
2026-04-27 09:09 50.21896 137.37376 35001 ft 466 kts 215°
2026-04-27 09:10 50.16572 137.31683 35001 ft 466 kts 214°
2026-04-27 09:10 50.11243 137.25995 35001 ft 466 kts 214°
2026-04-27 09:11 50.05910 137.20344 35001 ft 466 kts 214°
2026-04-27 09:11 50.00537 137.14723 35001 ft 466 kts 214°
2026-04-27 09:12 49.95207 137.09155 35001 ft 466 kts 214°
2026-04-27 09:12 49.89831 137.03554 35001 ft 466 kts 214°
2026-04-27 09:13 49.84486 136.97996 35001 ft 466 kts 214°
2026-04-27 09:13 49.79127 136.92441 35001 ft 466 kts 214°
2026-04-27 09:14 49.73729 136.86858 35001 ft 466 kts 214°
2026-04-27 09:14 49.68377 136.81339 35001 ft 466 kts 214°
2026-04-27 09:15 49.63001 136.75809 35001 ft 466 kts 214°
2026-04-27 09:15 49.57610 136.70277 35001 ft 466 kts 214°
2026-04-27 09:16 49.52269 136.64813 35001 ft 466 kts 214°
2026-04-27 09:16 49.46809 136.59384 35001 ft 466 kts 211°
2026-04-27 09:17 49.40965 136.55209 35002 ft 465 kts 199°
2026-04-27 09:17 49.36906 136.53117 35002 ft 466 kts 199°
2026-04-27 09:18 49.22058 136.45395 35001 ft 466 kts 199°
2026-04-27 09:19 49.15960 136.42270 35001 ft 466 kts 199°
2026-04-27 09:19 49.09840 136.39153 35001 ft 466 kts 199°
2026-04-27 09:20 49.03704 136.36038 35001 ft 466 kts 199°
2026-04-27 09:20 48.97564 136.32935 35001 ft 466 kts 198°
2026-04-27 09:21 48.91433 136.29846 35001 ft 466 kts 198°
2026-04-27 09:21 48.85274 136.26753 35001 ft 466 kts 198°
2026-04-27 09:22 48.79107 136.23709 35001 ft 466 kts 198°
2026-04-27 09:22 48.72997 136.20706 35001 ft 466 kts 198°
2026-04-27 09:23 48.66833 136.17680 35001 ft 466 kts 198°
2026-04-27 09:23 48.60652 136.14655 35001 ft 466 kts 198°
2026-04-27 09:24 48.54522 136.11662 35001 ft 466 kts 198°
2026-04-27 09:24 48.48387 136.08673 35001 ft 466 kts 198°
2026-04-27 09:25 48.42209 136.05672 35001 ft 466 kts 198°
2026-04-27 09:25 48.36049 136.02686 35001 ft 466 kts 198°
2026-04-27 09:26 48.29930 135.99728 35001 ft 466 kts 198°
2026-04-27 09:26 48.23774 135.96759 35001 ft 466 kts 198°
2026-04-27 09:27 48.17595 135.93788 35001 ft 466 kts 198°
2026-04-27 09:27 48.11468 135.90848 35000 ft 466 kts 198°
2026-04-27 09:28 48.05294 135.87894 35001 ft 466 kts 198°
2026-04-27 09:28 47.99128 135.84950 35001 ft 466 kts 198°
2026-04-27 09:29 47.92986 135.82027 35000 ft 466 kts 198°
2026-04-27 09:29 47.86829 135.79102 35001 ft 466 kts 198°
2026-04-27 09:30 47.80654 135.76176 35001 ft 466 kts 198°
2026-04-27 09:30 47.74513 135.73274 35000 ft 466 kts 198°
2026-04-27 09:31 47.68343 135.70366 35000 ft 466 kts 198°
2026-04-27 09:31 47.62189 135.67473 35001 ft 466 kts 198°
2026-04-27 09:32 47.56045 135.64590 35000 ft 466 kts 198°
2026-04-27 09:32 47.49882 135.61706 35000 ft 466 kts 198°
2026-04-27 09:33 47.43722 135.58832 35000 ft 466 kts 198°
2026-04-27 09:33 47.37580 135.55972 35000 ft 466 kts 198°
2026-04-27 09:34 47.31415 135.53108 35000 ft 466 kts 198°
2026-04-27 09:34 47.25215 135.50235 35000 ft 466 kts 198°
2026-04-27 09:35 47.19058 135.47385 35000 ft 466 kts 198°
2026-04-27 09:35 47.12891 135.44537 35000 ft 466 kts 198°
2026-04-27 09:36 47.06737 135.41701 35000 ft 466 kts 198°
2026-04-27 09:36 47.00559 135.38861 35000 ft 466 kts 198°
2026-04-27 09:37 46.94400 135.36038 35000 ft 466 kts 198°
2026-04-27 09:37 46.88241 135.33221 35000 ft 466 kts 197°
2026-04-27 09:38 46.82085 135.30411 35000 ft 466 kts 197°
2026-04-27 09:38 46.75919 135.27454 35000 ft 466 kts 198°
2026-04-27 09:39 46.69784 135.24478 35000 ft 466 kts 198°
2026-04-27 09:39 46.63684 135.21535 35000 ft 466 kts 198°
2026-04-27 09:40 46.57526 135.18573 35001 ft 466 kts 198°
2026-04-27 09:40 46.51384 135.15628 35001 ft 466 kts 198°
2026-04-27 09:41 46.45250 135.12694 35001 ft 466 kts 198°
2026-04-27 09:41 46.39119 135.09770 35001 ft 466 kts 198°
2026-04-27 09:42 46.32989 135.06853 35001 ft 466 kts 198°
2026-04-27 09:42 46.26825 135.03926 35001 ft 466 kts 198°
2026-04-27 09:43 46.20686 135.01019 35000 ft 466 kts 198°
2026-04-27 09:43 46.14557 134.98123 35000 ft 466 kts 198°
2026-04-27 09:44 46.08407 134.95224 35000 ft 466 kts 198°
2026-04-27 09:44 46.02284 134.92345 35000 ft 466 kts 198°
2026-04-27 09:45 45.96124 134.89456 35000 ft 466 kts 198°
2026-04-27 09:45 45.90105 134.86185 34999 ft 465 kts 206°
2026-04-27 09:46 45.84710 134.82025 35001 ft 466 kts 209°
2026-04-27 09:46 45.79834 134.78177 35001 ft 466 kts 209°
2026-04-27 09:47 45.74216 134.73706 35001 ft 466 kts 209°
2026-04-27 09:47 45.68560 134.69183 35001 ft 466 kts 209°
2026-04-27 09:48 45.62947 134.64690 35001 ft 466 kts 210°
2026-04-27 09:48 45.57310 134.60176 35001 ft 466 kts 210°
2026-04-27 09:49 45.51668 134.55666 35001 ft 466 kts 210°
2026-04-27 09:49 45.46023 134.51161 34891 ft 468 kts 210°
2026-04-27 09:49 45.43170 134.48886 34557 ft 471 kts 210°
2026-04-27 09:50 45.40325 134.46619 34229 ft 467 kts 210°
2026-04-27 09:50 45.37526 134.44392 33905 ft 464 kts 210°
2026-04-27 09:50 45.34714 134.42160 33582 ft 465 kts 210°
2026-04-27 09:50 45.31878 134.39909 33256 ft 465 kts 210°
2026-04-27 09:51 45.29055 134.37671 32931 ft 466 kts 210°
2026-04-27 09:51 45.26242 134.35442 32608 ft 467 kts 210°
2026-04-27 09:51 45.23398 134.33192 32282 ft 467 kts 209°
2026-04-27 09:51 45.20589 134.30972 31960 ft 468 kts 209°
2026-04-27 09:52 45.17738 134.28723 31633 ft 468 kts 209°
2026-04-27 09:52 45.14891 134.26480 31308 ft 469 kts 209°
2026-04-27 09:52 45.12078 134.24265 30986 ft 469 kts 209°
2026-04-27 09:52 45.09214 134.22012 30659 ft 469 kts 209°
2026-04-27 09:53 45.06370 134.19778 30335 ft 469 kts 209°
2026-04-27 09:53 45.03543 134.17560 30012 ft 470 kts 209°
2026-04-27 09:53 45.00658 134.15300 29683 ft 470 kts 209°
2026-04-27 09:53 44.97824 134.13081 29361 ft 470 kts 209°
2026-04-27 09:54 44.94986 134.10863 29037 ft 470 kts 209°
2026-04-27 09:54 44.92131 134.08632 28712 ft 470 kts 209°
2026-04-27 09:54 44.89303 134.06427 28390 ft 470 kts 209°
2026-04-27 09:54 44.86416 134.04178 28062 ft 471 kts 209°
2026-04-27 09:55 44.83567 134.01959 27739 ft 472 kts 209°
2026-04-27 09:55 44.80732 133.99698 27417 ft 473 kts 210°
2026-04-27 09:55 44.75028 133.94994 26764 ft 475 kts 210°
2026-04-27 09:56 44.72179 133.92658 26439 ft 476 kts 210°
2026-04-27 09:56 44.69334 133.90332 26115 ft 476 kts 210°
2026-04-27 09:56 44.66452 133.87978 25788 ft 477 kts 210°
2026-04-27 09:56 44.63630 133.85675 25464 ft 467 kts 210°
2026-04-27 09:57 44.60865 133.83423 25136 ft 449 kts 210°
2026-04-27 09:57 44.58232 133.81282 24810 ft 432 kts 210°
2026-04-27 09:57 44.55679 133.79213 24485 ft 422 kts 210°
2026-04-27 09:57 44.53144 133.77161 24163 ft 425 kts 210°
2026-04-27 09:58 44.50580 133.75082 23838 ft 425 kts 210°
2026-04-27 09:58 44.48024 133.73012 23511 ft 423 kts 210°
2026-04-27 09:58 44.45507 133.70972 23187 ft 419 kts 210°
2026-04-27 09:58 44.43008 133.68951 22864 ft 417 kts 210°
2026-04-27 09:59 44.40507 133.66931 22539 ft 415 kts 210°
2026-04-27 09:59 44.38002 133.64909 22212 ft 413 kts 210°
2026-04-27 09:59 44.35536 133.62921 21888 ft 411 kts 210°
2026-04-27 09:59 44.33036 133.60907 21558 ft 409 kts 210°
2026-04-27 10:00 44.30592 133.58942 21235 ft 407 kts 210°
2026-04-27 10:00 44.28146 133.56978 20909 ft 405 kts 210°
2026-04-27 10:00 44.25735 133.55041 20586 ft 403 kts 210°
2026-04-27 10:00 44.23304 133.53091 20260 ft 401 kts 210°
2026-04-27 10:01 44.20903 133.51169 19936 ft 399 kts 210°
2026-04-27 10:01 44.18482 133.49231 19607 ft 397 kts 210°
2026-04-27 10:01 44.16091 133.47319 19282 ft 396 kts 210°
2026-04-27 10:01 44.13717 133.45422 18957 ft 394 kts 210°
2026-04-27 10:02 44.11370 133.43550 18634 ft 392 kts 210°
2026-04-27 10:02 44.09006 133.41663 18308 ft 390 kts 210°
2026-04-27 10:02 44.06667 133.39800 17983 ft 388 kts 210°
2026-04-27 10:02 44.04344 133.37950 17659 ft 386 kts 210°
2026-04-27 10:03 44.02019 133.36101 17333 ft 384 kts 210°
2026-04-27 10:03 43.99719 133.34274 17010 ft 382 kts 210°
2026-04-27 10:03 43.97416 133.32446 16684 ft 381 kts 210°
2026-04-27 10:03 43.95110 133.30618 16357 ft 379 kts 210°
2026-04-27 10:04 43.92851 133.28828 16034 ft 377 kts 210°
2026-04-27 10:04 43.90624 133.26921 15707 ft 375 kts 215°
2026-04-27 10:04 43.88593 133.24644 15380 ft 373 kts 223°
2026-04-27 10:04 43.86858 133.21995 15055 ft 371 kts 233°
2026-04-27 10:05 43.85388 133.19073 14732 ft 370 kts 236°
2026-04-27 10:05 43.83965 133.16148 14409 ft 368 kts 236°
2026-04-27 10:05 43.82526 133.13237 14083 ft 366 kts 236°
2026-04-27 10:05 43.81108 133.10362 13761 ft 364 kts 236°
2026-04-27 10:06 43.79688 133.07478 13429 ft 353 kts 236°
2026-04-27 10:06 43.78346 133.04744 13104 ft 341 kts 236°
2026-04-27 10:06 43.77042 133.02090 12779 ft 330 kts 236°
2026-04-27 10:06 43.75755 132.99478 12448 ft 320 kts 236°
2026-04-27 10:07 43.74525 132.96985 12124 ft 312 kts 236°
2026-04-27 10:07 43.73328 132.94562 11801 ft 304 kts 236°
2026-04-27 10:07 43.72149 132.92177 11475 ft 298 kts 236°
2026-04-27 10:07 43.70986 132.89825 11147 ft 292 kts 236°
2026-04-27 10:08 43.69854 132.87535 10822 ft 287 kts 236°
2026-04-27 10:08 43.68738 132.85275 10497 ft 285 kts 236°
2026-04-27 10:08 43.67625 132.83025 10172 ft 284 kts 236°
2026-04-27 10:08 43.66526 132.80803 9851 ft 282 kts 236°
2026-04-27 10:09 43.65481 132.78526 9536 ft 280 kts 240°
2026-04-27 10:09 43.64531 132.76161 9219 ft 279 kts 241°
2026-04-27 10:09 43.63596 132.73871 8896 ft 278 kts 240°
2026-04-27 10:09 43.62637 132.71532 8566 ft 277 kts 240°
2026-04-27 10:10 43.61660 132.69261 8239 ft 276 kts 238°
2026-04-27 10:10 43.60672 132.67033 7918 ft 274 kts 239°
2026-04-27 10:10 43.59701 132.64764 7590 ft 273 kts 240°
2026-04-27 10:10 43.58765 132.62499 7263 ft 270 kts 241°
2026-04-27 10:11 43.57864 132.60257 6934 ft 264 kts 241°
2026-04-27 10:11 43.56989 132.58067 6607 ft 259 kts 242°
2026-04-27 10:11 43.56146 132.55949 6317 ft 248 kts 242°
2026-04-27 10:11 43.55341 132.53928 6118 ft 231 kts 242°
2026-04-27 10:12 43.54591 132.52045 5902 ft 217 kts 242°
2026-04-27 10:12 43.53892 132.50293 5648 ft 199 kts 242°
2026-04-27 10:12 43.53258 132.48704 5298 ft 179 kts 242°
2026-04-27 10:12 43.52696 132.47298 5087 ft 157 kts 242°
2026-04-27 10:13 43.52200 132.46056 4856 ft 142 kts 242°
2026-04-27 10:13 43.51750 132.44931 4701 ft 130 kts 242°
2026-04-27 10:13 43.51313 132.43837 4559 ft 131 kts 242°
2026-04-27 10:13 43.50869 132.42728 4343 ft 131 kts 242°
2026-04-27 10:14 43.50436 132.41647 4143 ft 128 kts 242°
2026-04-27 10:14 43.50008 132.40578 3996 ft 129 kts 242°
2026-04-27 10:14 43.49573 132.39493 3808 ft 130 kts 242°
2026-04-27 10:14 43.49136 132.38403 3597 ft 128 kts 242°
2026-04-27 10:15 43.48708 132.37335 3427 ft 127 kts 242°
2026-04-27 10:15 43.48281 132.36272 3264 ft 128 kts 242°
2026-04-27 10:15 43.47850 132.35199 3072 ft 128 kts 242°
2026-04-27 10:15 43.47427 132.34135 2891 ft 127 kts 241°
2026-04-27 10:16 43.47001 132.33073 2723 ft 127 kts 241°
2026-04-27 10:16 43.46580 132.32024 2549 ft 126 kts 241°
2026-04-27 10:16 43.46151 132.30959 2369 ft 126 kts 241°
2026-04-27 10:16 43.45726 132.29901 2195 ft 126 kts 241°
2026-04-27 10:17 43.45304 132.28853 2023 ft 125 kts 241°
2026-04-27 10:17 43.44882 132.27805 1851 ft 125 kts 241°
2026-04-27 10:17 43.44463 132.26765 1681 ft 125 kts 241°
2026-04-27 10:17 43.44046 132.25729 1511 ft 124 kts 241°
2026-04-27 10:18 43.43627 132.24692 1342 ft 124 kts 240°
2026-04-27 10:18 43.43207 132.23650 1173 ft 124 kts 241°
2026-04-27 10:18 43.42789 132.22615 1005 ft 123 kts 241°
2026-04-27 10:18 43.42377 132.21593 840 ft 123 kts 241°
2026-04-27 10:19 43.41959 132.20558 673 ft 123 kts 240°
2026-04-27 10:19 43.41545 132.19534 509 ft 123 kts 241°
2026-04-27 10:19 43.41130 132.18509 347 ft 122 kts 241°
2026-04-27 10:19 43.40718 132.17490 191 ft 122 kts 241°
2026-04-27 10:20 43.40310 132.16481 41 ft 119 kts 241°
2026-04-27 10:20 43.39879 132.15411 403 ft 128 kts 241°
2026-04-27 10:20 43.39527 132.14537 1192 ft 105 kts 241°
2026-04-27 10:20 43.39121 132.13536 1454 ft 130 kts 240°
2026-04-27 10:21 43.38717 132.12552 2177 ft 111 kts 240°
2026-04-27 10:21 43.38467 132.11534 2515 ft 127 kts 262°
2026-04-27 10:21 43.38514 132.10339 3142 ft 125 kts 286°
2026-04-27 10:21 43.38859 132.09492 4166 ft 103 kts 315°
2026-04-27 10:22 43.39516 132.08876 4743 ft 128 kts 328°
2026-04-27 10:22 43.39948 132.07979 5601 ft 128 kts 264°
2026-04-27 10:22 43.39831 132.07516 5587 ft 156 kts 231°
2026-04-27 10:22 43.38702 132.06924 5578 ft 188 kts 189°
2026-04-27 10:23 43.37482 132.06116 6053 ft 212 kts 217°
2026-04-27 10:23 43.36308 132.04894 6525 ft 208 kts 220°
2026-04-27 10:23 43.35291 132.03476 7006 ft 213 kts 232°
2026-04-27 10:23 43.34443 132.01724 6721 ft 229 kts 240°
2026-04-27 10:24 43.33649 131.99800 6216 ft 225 kts 240°
2026-04-27 10:24 43.32913 131.98012 5754 ft 211 kts 240°
2026-04-27 10:24 43.32322 131.96283 5268 ft 196 kts 251°
2026-04-27 10:24 43.31727 131.94739 4769 ft 188 kts 231°
2026-04-27 10:25 43.30987 131.93350 4399 ft 170 kts 239°
2026-04-27 10:25 43.30407 131.92033 4146 ft 149 kts 239°
2026-04-27 10:25 43.29930 131.90897 4044 ft 130 kts 240°
2026-04-27 10:25 43.29647 131.89719 3658 ft 139 kts 272°
2026-04-27 10:26 43.29853 131.88402 3146 ft 141 kts 276°
2026-04-27 10:26 43.29548 131.87285 3041 ft 125 kts 225°
2026-04-27 10:26 43.28867 131.86369 3133 ft 144 kts 226°
2026-04-27 10:26 43.28244 131.85434 3063 ft 126 kts 229°
2026-04-27 10:27 43.27687 131.84499 3090 ft 127 kts 232°
2026-04-27 10:27 43.27289 131.83432 3025 ft 131 kts 271°
2026-04-27 10:27 43.27725 131.82370 2589 ft 135 kts 324°
2026-04-27 10:27 43.28492 131.81763 2377 ft 125 kts 334°
2026-04-27 10:28 43.29187 131.81027 2167 ft 129 kts 300°
2026-04-27 10:28 43.29723 131.80101 1989 ft 126 kts 333°
2026-04-27 10:28 43.30579 131.79924 1918 ft 125 kts 11°
2026-04-27 10:28 43.31391 131.80351 1972 ft 125 kts 27°
2026-04-27 10:29 43.32135 131.80946 2074 ft 125 kts 33°
2026-04-27 10:29 43.32848 131.81641 2264 ft 125 kts 38°
2026-04-27 10:29 43.33506 131.82394 2640 ft 124 kts 42°
2026-04-27 10:29 43.34095 131.83200 3411 ft 119 kts 49°
2026-04-27 10:30 43.34579 131.84132 4039 ft 130 kts 64°
2026-04-27 10:30 43.34774 131.85324 4442 ft 134 kts 98°
2026-04-27 10:30 43.34242 131.86320 4285 ft 134 kts 163°
2026-04-27 10:30 43.33406 131.86040 4283 ft 128 kts 225°
2026-04-27 10:31 43.32798 131.85126 4465 ft 134 kts 226°
2026-04-27 10:31 43.32158 131.84218 4359 ft 129 kts 226°
2026-04-27 10:31 43.31747 131.83633 4369 ft 129 kts 226°
2026-04-27 10:31 43.30902 131.82430 4371 ft 130 kts 226°
2026-04-27 10:32 43.30270 131.81531 4369 ft 130 kts 226°
2026-04-27 10:32 43.29639 131.80633 4368 ft 130 kts 226°
2026-04-27 10:32 43.29016 131.79747 4367 ft 130 kts 226°
2026-04-27 10:32 43.28381 131.78845 4366 ft 130 kts 226°
2026-04-27 10:33 43.27757 131.77957 4375 ft 130 kts 226°
2026-04-27 10:33 43.27128 131.77063 4374 ft 130 kts 226°
2026-04-27 10:33 43.26498 131.76167 4373 ft 130 kts 226°
2026-04-27 10:33 43.25865 131.75267 4373 ft 130 kts 226°
2026-04-27 10:34 43.25230 131.74364 4372 ft 130 kts 226°
2026-04-27 10:34 43.24606 131.73476 4372 ft 130 kts 226°
2026-04-27 10:34 43.23968 131.72586 4371 ft 131 kts 225°
2026-04-27 10:34 43.23316 131.71675 4352 ft 140 kts 226°
2026-04-27 10:35 43.22591 131.70615 4376 ft 164 kts 229°
2026-04-27 10:35 43.21771 131.69359 4608 ft 188 kts 227°
2026-04-27 10:35 43.20792 131.68019 5010 ft 210 kts 224°
2026-04-27 10:35 43.19707 131.66684 5489 ft 214 kts 220°
2026-04-27 10:36 43.18529 131.65379 5994 ft 217 kts 218°
2026-04-27 10:36 43.17319 131.64175 6491 ft 220 kts 215°
2026-04-27 10:36 43.16025 131.63013 6808 ft 223 kts 212°
2026-04-27 10:36 43.14698 131.61894 6841 ft 230 kts 217°
2026-04-27 10:37 43.13647 131.60193 6290 ft 240 kts 249°
2026-04-27 10:37 43.13502 131.58077 6577 ft 213 kts 283°
2026-04-27 10:37 43.14206 131.56317 6735 ft 218 kts 316°
2026-04-27 10:37 43.15494 131.55159 7022 ft 222 kts 338°
2026-04-27 10:38 43.16988 131.54639 7290 ft 223 kts 352°
2026-04-27 10:38 43.18018 131.54538 7466 ft 224 kts
2026-04-27 10:38 43.19945 131.55519 7728 ft 222 kts 32°
2026-04-27 10:38 43.21277 131.56592 7971 ft 226 kts 29°
2026-04-27 10:39 43.22667 131.57631 8172 ft 225 kts 28°
2026-04-27 10:39 43.24034 131.58644 8446 ft 227 kts 28°
2026-04-27 10:39 43.25423 131.59672 8677 ft 228 kts 28°
2026-04-27 10:39 43.26823 131.60710 8849 ft 229 kts 28°
2026-04-27 10:40 43.28231 131.61755 9041 ft 230 kts 28°
2026-04-27 10:40 43.29639 131.62799 9024 ft 231 kts 28°
2026-04-27 10:40 43.31035 131.63837 9007 ft 228 kts 28°
2026-04-27 10:40 43.32435 131.64877 9010 ft 228 kts 28°
2026-04-27 10:41 43.33836 131.65920 9010 ft 229 kts 28°
2026-04-27 10:41 43.35242 131.66966 9010 ft 229 kts 28°
2026-04-27 10:41 43.36646 131.68012 9010 ft 229 kts 28°
2026-04-27 10:41 43.38034 131.69045 9010 ft 229 kts 28°
2026-04-27 10:42 43.39410 131.70151 9008 ft 229 kts 37°
2026-04-27 10:42 43.40604 131.71620 9012 ft 229 kts 44°
2026-04-27 10:42 43.41767 131.73084 9011 ft 229 kts 41°
2026-04-27 10:42 43.42965 131.74533 9010 ft 229 kts 41°
2026-04-27 10:43 43.44169 131.75980 9010 ft 229 kts 41°
2026-04-27 10:43 43.45364 131.77409 8997 ft 229 kts 41°
2026-04-27 10:43 43.46162 131.78363 8971 ft 229 kts 41°
2026-04-27 10:43 43.47762 131.80273 8926 ft 229 kts 41°
2026-04-27 10:44 43.48565 131.81232 8943 ft 226 kts 41°
2026-04-27 10:44 43.50161 131.83134 9098 ft 234 kts 41°
2026-04-27 10:44 43.51363 131.84569 9065 ft 227 kts 41°
2026-04-27 10:44 43.52568 131.86011 9032 ft 229 kts 41°
2026-04-27 10:45 43.53773 131.87454 8994 ft 229 kts 41°
2026-04-27 10:45 43.54964 131.88879 9135 ft 224 kts 41°
2026-04-27 10:45 43.56144 131.90292 9419 ft 230 kts 41°
2026-04-27 10:45 43.57362 131.91751 9609 ft 231 kts 41°
2026-04-27 10:46 43.58587 131.93221 9823 ft 231 kts 41°
2026-04-27 10:46 43.59793 131.94665 10068 ft 232 kts 41°
2026-04-27 10:46 43.61008 131.96121 10367 ft 233 kts 41°
2026-04-27 10:46 43.62246 131.97607 10430 ft 237 kts 41°
2026-04-27 10:47 43.63484 131.99094 10411 ft 233 kts 41°
2026-04-27 10:47 43.64709 132.00566 10399 ft 233 kts 41°
2026-04-27 10:47 43.65929 132.02033 10387 ft 234 kts 41°
2026-04-27 10:47 43.67143 132.03494 10375 ft 234 kts 41°
2026-04-27 10:48 43.68375 132.04977 10363 ft 233 kts 41°
2026-04-27 10:48 43.69594 132.06445 10349 ft 233 kts 41°
2026-04-27 10:48 43.70832 132.07938 10321 ft 234 kts 41°
2026-04-27 10:48 43.72045 132.09399 10297 ft 233 kts 41°
2026-04-27 10:49 43.73267 132.10875 10265 ft 233 kts 41°
2026-04-27 10:49 43.74497 132.12360 10227 ft 233 kts 41°
2026-04-27 10:49 43.75705 132.13818 10190 ft 233 kts 41°
2026-04-27 10:49 43.76921 132.15289 10151 ft 233 kts 41°
2026-04-27 10:50 43.78152 132.16777 10041 ft 234 kts 41°
2026-04-27 10:50 43.79243 132.18402 9905 ft 232 kts 62°
2026-04-27 10:50 43.79607 132.20561 9802 ft 231 kts 87°
2026-04-27 10:50 43.79720 132.22754 9695 ft 232 kts 84°
2026-04-27 10:51 43.79902 132.24965 9582 ft 231 kts 83°
2026-04-27 10:51 43.80086 132.27164 9469 ft 230 kts 83°
2026-04-27 10:51 43.80276 132.29373 9356 ft 230 kts 83°
2026-04-27 10:51 43.80468 132.31569 9242 ft 230 kts 83°
2026-04-27 10:52 43.80662 132.33768 9129 ft 229 kts 83°
2026-04-27 10:52 43.80854 132.35948 9017 ft 229 kts 83°
2026-04-27 10:52 43.81047 132.38124 8904 ft 228 kts 83°
2026-04-27 10:52 43.81238 132.40294 8773 ft 229 kts 83°
2026-04-27 10:53 43.81431 132.42474 8531 ft 229 kts 83°
2026-04-27 10:53 43.80724 132.46584 7999 ft 224 kts 125°
2026-04-27 10:53 43.79863 132.48352 7746 ft 223 kts 122°
2026-04-27 10:54 43.79048 132.50157 7531 ft 221 kts 121°
2026-04-27 10:54 43.78231 132.51985 7299 ft 222 kts 121°
2026-04-27 10:54 43.77433 132.53792 7069 ft 221 kts 121°
2026-04-27 10:54 43.76639 132.55598 6844 ft 220 kts 121°
2026-04-27 10:55 43.75837 132.57428 6626 ft 220 kts 121°
2026-04-27 10:55 43.75054 132.59216 6414 ft 219 kts 121°
2026-04-27 10:55 43.74262 132.61024 6199 ft 218 kts 121°
2026-04-27 10:55 43.73475 132.62820 5984 ft 218 kts 121°
2026-04-27 10:56 43.72702 132.64583 5774 ft 216 kts 121°
2026-04-27 10:56 43.71932 132.66344 5566 ft 208 kts 121°
2026-04-27 10:56 43.71200 132.68016 5374 ft 201 kts 121°
2026-04-27 10:56 43.70488 132.69643 5184 ft 194 kts 121°
2026-04-27 10:57 43.69802 132.71205 4995 ft 188 kts 121°
2026-04-27 10:57 43.69128 132.72739 4805 ft 183 kts 121°
2026-04-27 10:57 43.68473 132.74225 4619 ft 182 kts 121°
2026-04-27 10:57 43.67811 132.75726 4448 ft 180 kts 121°
2026-04-27 10:58 43.67054 132.77071 4260 ft 180 kts 143°
2026-04-27 10:58 43.65876 132.77516 4095 ft 180 kts 188°
2026-04-27 10:58 43.64799 132.76718 3993 ft 179 kts 229°
2026-04-27 10:58 43.64179 132.75238 3927 ft 180 kts 243°
2026-04-27 10:59 43.63581 132.73784 3838 ft 163 kts 240°
2026-04-27 10:59 43.63040 132.72476 3786 ft 156 kts 240°
2026-04-27 10:59 43.62479 132.71155 3721 ft 158 kts 238°
2026-04-27 11:00 43.61343 132.68642 3598 ft 149 kts 238°
2026-04-27 11:00 43.60798 132.67421 3548 ft 148 kts 239°
2026-04-27 11:00 43.60279 132.66202 3491 ft 147 kts 240°
2026-04-27 11:00 43.59771 132.64980 3429 ft 147 kts 240°
2026-04-27 11:01 43.59270 132.63751 3368 ft 147 kts 241°
2026-04-27 11:01 43.58771 132.62514 3305 ft 147 kts 241°
2026-04-27 11:01 43.58278 132.61285 3243 ft 147 kts 241°
2026-04-27 11:01 43.57789 132.60062 3182 ft 147 kts 241°
2026-04-27 11:02 43.57298 132.58832 3119 ft 146 kts 241°
2026-04-27 11:02 43.56800 132.57584 3056 ft 146 kts 242°
2026-04-27 11:02 43.56314 132.56363 3022 ft 143 kts 242°
2026-04-27 11:02 43.55841 132.55174 2957 ft 139 kts 242°
2026-04-27 11:03 43.55363 132.53973 2895 ft 140 kts 242°
2026-04-27 11:03 43.54903 132.52818 2816 ft 135 kts 242°
2026-04-27 11:03 43.54451 132.51685 2753 ft 135 kts 242°
2026-04-27 11:03 43.54000 132.50554 2698 ft 135 kts 242°
2026-04-27 11:04 43.53546 132.49416 2640 ft 135 kts 242°
2026-04-27 11:04 43.53093 132.48283 2576 ft 135 kts 242°
2026-04-27 11:04 43.52642 132.47154 2513 ft 135 kts 242°
2026-04-27 11:04 43.52191 132.46027 2451 ft 135 kts 242°
2026-04-27 11:05 43.51739 132.44896 2388 ft 134 kts 242°
2026-04-27 11:05 43.51289 132.43770 2325 ft 134 kts 242°
2026-04-27 11:05 43.50835 132.42638 2262 ft 134 kts 242°
2026-04-27 11:05 43.50386 132.41516 2200 ft 134 kts 242°
2026-04-27 11:06 43.49933 132.40385 2136 ft 134 kts 242°
2026-04-27 11:06 43.49484 132.39264 2074 ft 134 kts 242°
2026-04-27 11:06 43.49035 132.38147 2011 ft 134 kts 242°
2026-04-27 11:06 43.48581 132.37015 1951 ft 133 kts 242°
2026-04-27 11:07 43.48134 132.35901 1903 ft 133 kts 242°
2026-04-27 11:07 43.47687 132.34788 1853 ft 133 kts 241°
2026-04-27 11:07 43.47240 132.33668 1803 ft 133 kts 241°
2026-04-27 11:07 43.46790 132.32546 1752 ft 133 kts 241°
2026-04-27 11:08 43.46344 132.31436 1711 ft 133 kts 241°
2026-04-27 11:08 43.45896 132.30325 1700 ft 128 kts 241°
2026-04-27 11:08 43.45482 132.29294 1683 ft 122 kts 241°
2026-04-27 11:08 43.45067 132.28264 1721 ft 123 kts 241°
2026-04-27 11:09 43.44655 132.27241 1712 ft 123 kts 241°
2026-04-27 11:09 43.44233 132.26195 1570 ft 124 kts 241°
2026-04-27 11:09 43.43825 132.25183 1418 ft 122 kts 241°
2026-04-27 11:09 43.43412 132.24159 1256 ft 122 kts 241°
2026-04-27 11:10 43.42998 132.23132 1089 ft 122 kts 241°
2026-04-27 11:10 43.42590 132.22121 926 ft 121 kts 241°
2026-04-27 11:10 43.42182 132.21112 763 ft 121 kts 241°
2026-04-27 11:10 43.41772 132.20096 599 ft 121 kts 241°
2026-04-27 11:11 43.41366 132.19092 438 ft 120 kts 241°
2026-04-27 11:11 43.40959 132.18083 285 ft 120 kts 241°
2026-04-27 11:11 43.40553 132.17081 125 ft 120 kts 241°
2026-04-27 11:11 43.40173 132.16141 49 ft 92 kts 241°
2026-04-27 11:12 43.39964 132.15624 57 ft 37 kts 242°
2026-04-27 11:12 43.39884 132.15411 57 ft 19 kts 240°
2026-04-27 11:12 43.39825 132.15289 58 ft 12 kts 238°
2026-04-27 11:12 43.39782 132.15192 57 ft 11 kts 244°
2026-04-27 11:13 43.39744 132.15088 56 ft 12 kts 242°
2026-04-27 11:13 43.39700 132.14972 54 ft 14 kts 242°
2026-04-27 11:13 43.39652 132.14854 53 ft 14 kts 240°
2026-04-27 11:13 43.39601 132.14726 49 ft 15 kts 240°
2026-04-27 11:14 43.39547 132.14594 49 ft 16 kts 240°
2026-04-27 11:14 43.39491 132.14455 48 ft 17 kts 240°
2026-04-27 11:14 43.39437 132.14322 46 ft 14 kts 240°
2026-04-27 11:14 43.39378 132.14204 43 ft 14 kts 215°
2026-04-27 11:15 43.39287 132.14218 45 ft 12 kts 150°
2026-04-27 11:15 43.39218 132.14273 49 ft 11 kts 141°
2026-04-27 11:15 43.39213 132.14369 53 ft 11 kts 65°
2026-04-27 11:15 43.39259 132.14488 55 ft 16 kts 62°
2026-04-27 11:16 43.39325 132.14655 55 ft 20 kts 62°
2026-04-27 11:16 43.39383 132.14790 57 ft 16 kts 59°
2026-04-27 11:16 43.39442 132.14929 60 ft 16 kts 61°
2026-04-27 11:16 43.39494 132.15067 60 ft 16 kts 60°
2026-04-27 11:17 43.39547 132.15201 62 ft 14 kts 61°
2026-04-27 11:17 43.39598 132.15328 63 ft 15 kts 61°
2026-04-27 11:17 43.39653 132.15465 65 ft 17 kts 61°
2026-04-27 11:17 43.39713 132.15613 63 ft 19 kts 62°
2026-04-27 11:18 43.39684 132.15767 65 ft 18 kts 156°
2026-04-27 11:18 43.39648 132.15790 66 ft 0 kts 152°